Location: Liège
(50.6326°N, 5.5797°E)
Time: 03:53:07
(UTC+01:00)

ISS - Visible Passes

Search period start: 19 November 2018 00:00
Search period end: 29 November 2018 00:00
Orbit: 401 x 408 km, 51.6° (Epoch: 19 November)

Date Brightness Start Highest point End Pass type
(mag) Time Alt. Az. Time Alt. Az. Time Alt. Az.
24 Nov -1.2 18:33:53 10° SSE 18:34:05 10° SSE 18:34:05 10° SSE visible
25 Nov -1.4 19:15:55 10° SW 19:16:56 17° SSW 19:16:56 17° SSW visible
26 Nov -2.2 18:24:18 10° SSW 18:26:52 21° SE 18:27:02 21° SE visible
27 Nov -1.5 17:33:10 10° S 17:34:55 14° SE 17:36:40 10° ESE visible
27 Nov -2.3 19:07:40 10° SW 19:09:43 33° SW 19:09:43 33° SW visible
28 Nov -3.0 18:15:42 10° SW 18:18:45 37° SSE 18:19:40 30° ESE visible
28 Nov -0.5 19:51:50 10° W 19:52:19 14° W 19:52:19 14° W visible
